Home   Weather   Paterson   Past weeks

Flag for USA Past Weather in Paterson, New Jersey, USA — Yesterday and Last 2 Weeks

Now
48 °F

Clear.


Feels Like: 48 °F
Forecast: 45 / 61 °F
Wind: No wind

Location: Essex County Airport

Current Time: Apr 24, 2017 at 3:33:15 am

Latest Report: Apr 24, 2017 at 1:53 am


Visibility: 10 mi

Pressure: 30.14 "Hg

Humidity: 80%

Dew Point: 42 °F

Location of PatersonLocation

Past Weather in Paterson — Graph

°F

Paterson Temperature Yesterday

Maximum temperature yesterday: 67 °F (at 3:53 pm)
Minimum temperature yesterday: 42 °F (at 6:53 am)
Average temperature yesterday: 54 °F

High & Low Weather Summary for the Past Weeks

 TemperatureHumidityPressure
High87 °F (Apr 11, 2:53 pm)97% (Apr 21, 6:53 am)30.54 "Hg (Apr 21, 6:53 am)
Low33 °F (Apr 9, 5:53 am)16% (Apr 9, 5:53 pm)29.77 "Hg (Apr 16, 6:53 pm)
Average58 °F58%30.16 "Hg
* Reported Apr 9 1:53 am — Apr 24 1:53 am, Paterson, Weather by CustomWeather, © 2017

Note: Actual official high and low records may vary slightly from our data, if they occured in-between our weather recording intervals... More about our weather records

Advertising

Paterson Weather History for the Previous 24 Hours

Scroll right to see more
 ConditionsComfort  
Time TempWeatherWind HumidityBarometerVisibility
1:53 am
Mon, Apr 24
48 °FClear.No wind80%30.14 "Hg10 mi
12:53 am51 °FClear.No wind71%30.15 "Hg10 mi
11:53 pm
Sun, Apr 23
52 °FClear.No wind69%30.14 "Hg10 mi
10:53 pm53 °FClear.No wind69%30.14 "Hg10 mi
9:53 pm52 °FClear.3 mph69%30.14 "Hg10 mi
8:53 pm55 °FClear.No wind59%30.12 "Hg10 mi
7:53 pm58 °FClear.5 mph51%30.10 "Hg10 mi
6:53 pm61 °FSunny.7 mph44%30.08 "Hg10 mi
5:53 pm67 °FSunny.7 mph29%30.07 "Hg10 mi
4:53 pm67 °FSunny.7 mph30%30.07 "Hg10 mi
3:53 pm67 °FSunny.5 mph29%30.07 "Hg10 mi
2:53 pm65 °FSunny.3 mph28%30.09 "Hg10 mi
1:53 pm63 °FSunny.No wind31%30.10 "Hg10 mi
12:53 pm60 °FSunny.No wind41%30.13 "Hg10 mi
11:53 am58 °FSunny.No wind43%30.14 "Hg10 mi
10:53 am57 °FSunny.8 mph46%30.16 "Hg10 mi
9:53 am53 °FSunny.5 mph48%30.15 "Hg10 mi
8:53 am51 °FSunny.7 mph56%30.16 "Hg10 mi
7:53 am48 °FSunny.No wind63%30.14 "Hg10 mi
6:53 am42 °FSunny.No wind76%30.13 "Hg10 mi
5:53 am43 °FClear.No wind74%30.10 "Hg10 mi
4:53 am45 °FClear.No wind68%30.08 "Hg10 mi
3:53 am45 °FClear.No wind71%30.06 "Hg10 mi
Weather by CustomWeather, © 2017

See weather overviewHow to use our weather pages